Regional Weather Roundup
Issued by NWS

Home | Current Version | Previous Version | Graphics & Text | Print | Product List | Glossary On
Versions: 1 2 3 4 5 6 7 8 9 10 11 12 13 14 15 16 17 18 19 20 21 22 23 24 25 26 27
000
ASUS45 KPSR 010310
RWRAZ

ARIZONA HOURLY REGIONAL WEATHER ROUNDUP
NATIONAL WEATHER SERVICE PHOENIX AZ
800 PM MST TUE MAY 31 2016

NOTE: FAIR INDICATES FEW OR NO CLOUDS BELOW 12,000 FEET WITH NO
SIGNIFICANT WEATHER AND/OR OBSTRUCTIONS TO VISIBILITY.

AZZ001>003-036-010400-
NORTHWEST ARIZONA

CITY           SKY/WX    TMP DP  RH WIND       PRES   REMARKS
KINGMAN        CLEAR     84  23  10 N10       29.86R
$$

AZZ004>008-015-016-018-010400-
NORTH CENTRAL ARIZONA

CITY           SKY/WX    TMP DP  RH WIND       PRES   REMARKS
GRAND CANYON   PTCLDY    62  29  28 CALM      30.07R
WILLIAMS       MOCLDY    66  27  22 SW5       30.14S
PRESCOTT       PTCLDY    74  27  17 NW7       29.96R
FLAGSTAFF      MOCLDY    66  26  22 W5        30.09R
PAYSON         MOCLDY    70  25  18 CALM      29.99S
PAGE           CLEAR     80  20  10 SE5       29.85R
$$

AZZ009>014-017-010400-
NORTHEAST ARIZONA

CITY           SKY/WX    TMP DP  RH WIND       PRES   REMARKS
WINSLOW        CLEAR     70  13  11 NW8       29.92R
SAINT JOHNS    MOCLDY    68  30  24 S10       30.00R
WINDOW ROCK    MOCLDY    71  24  17 VRB6G17   30.03R
SHOW LOW       MOCLDY    61  28  29 S8        30.06R
$$

AZZ023-010400-
GREATER PHOENIX AREA

CITY           SKY/WX    TMP DP  RH WIND       PRES   REMARKS
PHOENIX        MOCLDY    94  24   8 W9        29.68R
BUCKEYE        PTCLDY    86  34  15 SW6       29.70S
GLENDALE       MOCLDY    93  21   7 S6        29.70R
LUKE AFB       PTCLDY    92  26   9 SW9       29.67R
DEER VALLEY    PTCLDY    92  24   8 SW9       29.70R
SCOTTSDALE     MOCLDY    93  23   8 SW3       29.72R
MESA-FALCON    CLEAR    N/A N/A N/A SW6       29.69R
MESA-GATEWAY   MOCLDY    91  27   9 SW6       29.72R
CHANDLER       MOCLDY    93  21   7 S7        29.71R
$$

AZZ027-028-010400-
SOUTHWEST MARICOPA COUNTY AND PINAL COUNTY

CITY           SKY/WX    TMP DP  RH WIND       PRES   REMARKS
CASA GRANDE    MOCLDY    88  27  11 W5        29.75R
GILA BEND      MOCLDY    92  20   7 W3        29.69R
$$

AZZ503-504-507>509-010400-
SOUTHEAST ARIZONA

CITY           SKY/WX    TMP DP  RH WIND       PRES   REMARKS
TUCSON         PTCLDY    87  22   9 NW10      29.81R
DAVIS-MONTHAN  PTCLDY    86  24  10 N15G23    29.80R
RYAN FIELD     CLEAR     86  23  10 N7        29.80R
NOGALES        PTCLDY    76  16  10 SW5       29.90R
SIERRA VISTA   MOCLDY    73  14  10 SW13      29.95R
DOUGLAS        PTCLDY    73  23  15 SW7       29.90R
SAFFORD        PTCLDY    83  29  14 NE10      29.80R
$$

AZZ020-021-025-026-031-010400-
SOUTHWEST ARIZONA

CITY           SKY/WX    TMP DP  RH WIND       PRES   REMARKS
YUMA           PTCLDY    89  38  16 S10       29.68R
$$

CAZ031-033-041-043-047-048-061-010400-
SOUTHERN CALIFORNIA

CITY           SKY/WX    TMP DP  RH WIND       PRES   REMARKS
DOWNTOWN L.A.  CLOUDY    65  57  75 VRB3      29.86R
L.A. AIRPORT   CLOUDY    62  57  83 W8        29.87R
SAN DIEGO      CLOUDY    65  57  75 W6        29.89R
BURBANK        CLEAR     63  57  81 S9        29.85R
ONTARIO        PTCLDY    68  56  65 W9        29.85R
RIVERSIDE      CLEAR     70  56  61 W9        29.85R
PALM SPRINGS   PTCLDY    95  51  22 VRB5      29.68R
EL CENTRO NAS  PTCLDY    91  46  21 SE12      29.65R
IMPERIAL       CLEAR     95  42  16 SE10      29.64R
BLYTHE         CLEAR     98  35  11 S7        29.64S
NEEDLES        CLEAR     99  31   9 N5        29.65R
$$

NVZ020-UTZ003-010400-
SOUTHERN NEVADA-UTAH

CITY           SKY/WX    TMP DP  RH WIND       PRES   REMARKS
LAS VEGAS      PTCLDY    95  30  10 NE7       29.71R
SALT LAKE CITY CLEAR     68  36  30 W8        30.03R
$$

NMZ009-TXZ055-010400-
NEW MEXICO-WEST TEXAS

CITY           SKY/WX    TMP DP  RH WIND       PRES   REMARKS
ALBUQUERQUE    CLOUDY    65  37  35 SE15      30.01F
EL PASO        CLOUDY    76  40  27 S3        29.90R
$$


........................KEY........................
SKY/WX - SKY CONDITION/WEATHER
TMP    - TEMPERATURE IN FAHRENHEIT
DP     - DEW POINT IN FAHRENHEIT
RH     - RELATIVE HUMIDITY IN PERCENT
WIND   - DIRECTION AND SPEED IN MILES PER HOUR (MPH)
VRB    - VARIABLE WIND DIRECTION
PRES   - MEAN SEA LEVEL PRESSURE IN INCHES OF MERCURY
         F - FALLING PRESSURE   R - RISING PRESSURE
         S - STEADY PRESSURE
VSB    - VISIBILITY IN MILES
HX     - HEAT INDEX IN FAHRENHEIT
WCI    - WIND CHILL INDEX IN FAHRENHEIT
TC     - TEMPERATURE IN CELSIUS WHICH IS ALSO KNOWN AS
         TEMPERATURE IN CENTIGRADE
AFB    - AIR FORCE BASE
         LUKE AFB IS LUKE AIR FORCE BASE
         DAVIS-MONTHAN IS DAVIS-MONTHAN AIR FORCE BASE
NAS    - NAVAL AIR STATION
         EL CENTRO NAS IS EL CENTRO NAVAL AIR STATION
N/A    - NOT AVAILABLE





USA.gov is the U.S. government's official web portal to all federal, state and local government web resources and services.